When you browse on this site, cookies collect data to enhance your experience and personalize the content and advertising you see.
Visit our Privacy Policy to learn more. By continuing to use the site, you agree to this use of cookies and data.
  • în România
  • Lista ţărilor
  • Pe 7 zile
  • Temperatura apei
  • Hartă satelitară
  • Meteo pe hartă
  • Widget-uri
  • user-avatar
    Intrare

    Meteo pe oră la Port Gentil

    Astăzi, 17 Ianuarie, Joi

    Timp Temperatura Precipitaţii Vânt Presiune Umiditate
    00:00 +29°C° 1 mm 3 m/s 758 mmHg 84%
    01:00 +28°C° 0 mm 4 m/s 758 mmHg 87%
    02:00 +28°C° 1.8 mm 4 m/s 758 mmHg 86%
    03:00 +28°C° 1.8 mm 4 m/s 758 mmHg 86%
    04:00 +28°C° 1.8 mm 3 m/s 757 mmHg 86%
    05:00 +28°C° 1.4 mm 3 m/s 758 mmHg 86%
    06:00 +28°C° 1.4 mm 3 m/s 758 mmHg 86%
    07:00 +28°C° 0 mm 3 m/s 758 mmHg 87%
    08:00 +29°C° 0.3 mm 3 m/s 758 mmHg 81%
    09:00 +30°C° 0.3 mm 3 m/s 759 mmHg 76%
    10:00 +31°C° 0.3 mm 3 m/s 759 mmHg 70%
    11:00 +33°C° 0 mm 3 m/s 759 mmHg 67%
    12:00 +34°C° 0 mm 3 m/s 758 mmHg 63%
    13:00 +35°C° 0 mm 3 m/s 758 mmHg 59%
    14:00 +34°C° 1.2 mm 4 m/s 757 mmHg 64%
    15:00 +33°C° 1.2 mm 4 m/s 757 mmHg 68%
    16:00 +32°C° 1.2 mm 4 m/s 756 mmHg 73%
    17:00 +30°C° 1.2 mm 4 m/s 757 mmHg 75%
    18:00 +30°C° 1.2 mm 4 m/s 757 mmHg 77%
    19:00 +29°C° 1.2 mm 4 m/s 757 mmHg 80%
    20:00 +29°C° 0.3 mm 4 m/s 758 mmHg 80%
    21:00 +29°C° 0.3 mm 4 m/s 759 mmHg 80%
    22:00 +29°C° 0.3 mm 4 m/s 759 mmHg 80%
    23:00 +29°C° 1 mm 3 m/s 759 mmHg 81%

    Mâine, 18 Ianuarie, Vineri

    Timp Temperatura Precipitaţii Vânt Presiune Umiditate
    00:00 +28°C° 1 mm 3 m/s 759 mmHg 82%
    01:00 +28°C° 1 mm 3 m/s 759 mmHg 82%
    02:00 +28°C° 0.3 mm 3 m/s 758 mmHg 82%
    03:00 +28°C° 0.3 mm 3 m/s 758 mmHg 82%
    04:00 +28°C° 0.3 mm 3 m/s 758 mmHg 82%
    05:00 +28°C° 0 mm 3 m/s 758 mmHg 82%
    06:00 +28°C° 0 mm 3 m/s 758 mmHg 82%
    07:00 +28°C° 0 mm 3 m/s 758 mmHg 82%
    08:00 +29°C° 0 mm 3 m/s 759 mmHg 77%
    09:00 +30°C° 0 mm 3 m/s 759 mmHg 73%
    10:00 +31°C° 0 mm 3 m/s 760 mmHg 69%
    11:00 +33°C° 0 mm 4 m/s 759 mmHg 66%
    12:00 +33°C° 0 mm 4 m/s 759 mmHg 64%
    13:00 +34°C° 0 mm 4 m/s 758 mmHg 61%
    14:00 +33°C° 0.7 mm 4 m/s 758 mmHg 64%
    15:00 +33°C° 0.7 mm 5 m/s 758 mmHg 66%
    16:00 +32°C° 0.7 mm 5 m/s 757 mmHg 69%
    17:00 +30°C° 0.2 mm 5 m/s 758 mmHg 73%
    18:00 +30°C° 0.2 mm 5 m/s 758 mmHg 77%
    19:00 +29°C° 0.2 mm 5 m/s 758 mmHg 80%
    20:00 +29°C° 0.5 mm 5 m/s 759 mmHg 81%
    21:00 +29°C° 0.5 mm 5 m/s 759 mmHg 83%
    22:00 +28°C° 0.5 mm 4 m/s 760 mmHg 84%
    23:00 +28°C° 0.2 mm 4 m/s 760 mmHg 84%

    Poimâine, 19 Ianuarie, Sâmbătă

    Timp Temperatura Precipitaţii Vânt Presiune Umiditate
    00:00 +28°C° 0.2 mm 3 m/s 759 mmHg 85%
    01:00 +28°C° 0.2 mm 3 m/s 759 mmHg 86%
    02:00 +28°C° 1.2 mm 3 m/s 759 mmHg 86%
    03:00 +28°C° 1.2 mm 3 m/s 758 mmHg 87%
    04:00 +27°C° 1.2 mm 3 m/s 758 mmHg 87%
    05:00 +27°C° 0.1 mm 3 m/s 758 mmHg 89%
    06:00 +27°C° 0.1 mm 3 m/s 759 mmHg 90%
    07:00 +27°C° 0.1 mm 3 m/s 759 mmHg 91%
    08:00 +28°C° 0 mm 3 m/s 759 mmHg 84%
    09:00 +30°C° 0 mm 2 m/s 760 mmHg 76%
    10:00 +31°C° 0 mm 2 m/s 760 mmHg 69%
    11:00 +32°C° 0 mm 2 m/s 759 mmHg 66%
    12:00 +34°C° 0 mm 2 m/s 759 mmHg 62%
    13:00 +34°C° 0 mm 2 m/s 758 mmHg 59%
    14:00 +34°C° 0 mm 3 m/s 758 mmHg 62%
    15:00 +33°C° 0 mm 3 m/s 757 mmHg 65%
    16:00 +33°C° 0 mm 4 m/s 757 mmHg 69%
    17:00 +32°C° 0 mm 4 m/s 757 mmHg 72%
    18:00 +30°C° 0 mm 4 m/s 758 mmHg 75%
    19:00 +29°C° 0 mm 4 m/s 758 mmHg 78%
    20:00 +29°C° 0 mm 4 m/s 759 mmHg 79%
    21:00 +29°C° 0 mm 4 m/s 759 mmHg 80%
    22:00 +29°C° 0 mm 4 m/s 760 mmHg 81%
    23:00 +29°C° 0 mm 3 m/s 760 mmHg 81%

    20 Ianuarie, Duminică

    Timp Temperatura Precipitaţii Vânt Presiune Umiditate
    00:00 +29°C° 0 mm 3 m/s 759 mmHg 82%
    01:00 +29°C° 0 mm 3 m/s 759 mmHg 82%
    02:00 +28°C° 0 mm 3 m/s 759 mmHg 82%
    03:00 +28°C° 0 mm 3 m/s 758 mmHg 82%
    04:00 +28°C° 0 mm 3 m/s 758 mmHg 82%
    05:00 +28°C° 0 mm 3 m/s 758 mmHg 82%
    06:00 +28°C° 0 mm 4 m/s 759 mmHg 81%
    07:00 +28°C° 0 mm 4 m/s 759 mmHg 81%
    08:00 +29°C° 0 mm 4 m/s 759 mmHg 76%
    09:00 +30°C° 0 mm 3 m/s 760 mmHg 71%
    10:00 +31°C° 0 mm 3 m/s 760 mmHg 66%
    11:00 +33°C° 0 mm 4 m/s 760 mmHg 65%
    12:00 +33°C° 0 mm 4 m/s 759 mmHg 63%
    13:00 +34°C° 0 mm 4 m/s 759 mmHg 62%
    14:00 +33°C° 0 mm 4 m/s 758 mmHg 63%
    15:00 +33°C° 0 mm 5 m/s 758 mmHg 65%
    16:00 +33°C° 0 mm 5 m/s 757 mmHg 66%
    17:00 +32°C° 0.3 mm 5 m/s 758 mmHg 70%
    18:00 +30°C° 0.3 mm 5 m/s 758 mmHg 74%
    19:00 +29°C° 0.3 mm 4 m/s 759 mmHg 79%
    20:00 +29°C° 0.1 mm 4 m/s 759 mmHg 80%
    21:00 +29°C° 0.1 mm 4 m/s 760 mmHg 81%
    22:00 +29°C° 0.1 mm 4 m/s 760 mmHg 82%
    23:00 +28°C° 0.8 mm 4 m/s 760 mmHg 83%

    21 Ianuarie, Luni

    Timp Temperatura Precipitaţii Vânt Presiune Umiditate
    00:00 +28°C° 0.8 mm 4 m/s 760 mmHg 84%
    01:00 +28°C° 0.8 mm 4 m/s 760 mmHg 85%
    02:00 +28°C° 1.6 mm 4 m/s 760 mmHg 85%
    03:00 +28°C° 1.6 mm 4 m/s 759 mmHg 84%
    04:00 +27°C° 1.6 mm 4 m/s 759 mmHg 84%
    05:00 +27°C° 0.3 mm 4 m/s 759 mmHg 84%
    06:00 +28°C° 0.3 mm 4 m/s 759 mmHg 84%
    07:00 +28°C° 0.3 mm 4 m/s 760 mmHg 83%
    08:00 +29°C° 0 mm 4 m/s 760 mmHg 79%
    09:00 +30°C° 0 mm 4 m/s 760 mmHg 75%
    10:00 +32°C° 0 mm 4 m/s 760 mmHg 70%
    11:00 +33°C° 0 mm 4 m/s 760 mmHg 68%
    12:00 +33°C° 0 mm 4 m/s 759 mmHg 65%
    13:00 +34°C° 0 mm 4 m/s 759 mmHg 62%
    14:00 +34°C° 0 mm 4 m/s 758 mmHg 63%
    15:00 +34°C° 0 mm 4 m/s 757 mmHg 63%
    16:00 +33°C° 0 mm 4 m/s 757 mmHg 63%
    17:00 +32°C° 0 mm 4 m/s 757 mmHg 68%
    18:00 +30°C° 0 mm 4 m/s 757 mmHg 72%
    19:00 +29°C° 0 mm 4 m/s 758 mmHg 77%
    20:00 +29°C° 0 mm 3 m/s 758 mmHg 78%
    21:00 +29°C° 0 mm 3 m/s 759 mmHg 79%
    22:00 +28°C° 0 mm 3 m/s 759 mmHg 80%
    23:00 +28°C° 0 mm 3 m/s 759 mmHg 81%

    22 Ianuarie, Marţi

    Timp Temperatura Precipitaţii Vânt Presiune Umiditate
    00:00 +28°C° 0 mm 3 m/s 759 mmHg 81%
    01:00 +28°C° 0 mm 3 m/s 759 mmHg 81%
    02:00 +28°C° 0.1 mm 3 m/s 759 mmHg 81%
    03:00 +28°C° 0.1 mm 3 m/s 758 mmHg 82%
    04:00 +28°C° 0.1 mm 3 m/s 758 mmHg 82%
    05:00 +28°C° 0 mm 3 m/s 758 mmHg 82%
    06:00 +28°C° 0 mm 3 m/s 759 mmHg 83%
    07:00 +28°C° 0 mm 3 m/s 759 mmHg 83%
    08:00 +29°C° 0 mm 3 m/s 759 mmHg 78%
    09:00 +30°C° 0 mm 3 m/s 759 mmHg 72%
    10:00 +31°C° 0 mm 3 m/s 760 mmHg 66%
    11:00 +33°C° 0 mm 3 m/s 759 mmHg 64%
    12:00 +34°C° 0 mm 3 m/s 759 mmHg 62%
    13:00 +34°C° 0 mm 2 m/s 759 mmHg 60%
    14:00 +33°C° 0 mm 3 m/s 758 mmHg 64%
    15:00 +32°C° 0 mm 4 m/s 757 mmHg 69%
    16:00 +30°C° 0 mm 5 m/s 757 mmHg 73%
    17:00 +30°C° 0 mm 5 m/s 757 mmHg 75%
    18:00 +29°C° 0 mm 4 m/s 757 mmHg 77%
    19:00 +29°C° 0 mm 4 m/s 758 mmHg 79%
    20:00 +29°C° 0 mm 4 m/s 758 mmHg 79%
    21:00 +28°C° 0 mm 4 m/s 758 mmHg 80%
    22:00 +28°C° 0 mm 4 m/s 759 mmHg 80%
    23:00 +28°C° 0 mm 4 m/s 759 mmHg 81%
    Arată mai mult